カタログに戻る

CZ-6A DEB

運用中PO
NORAD 60771·DEBRIS·🇨🇳 China

打ち上げ Aug 6, 2024 から Taiyuan Satellite Launch Center

Loading…

次のパス (今後24時間)

TLE

最新Source: Space-Track

元期: Sep 14, 2026, 10:46 UTC

1 60771U 24140EW  26257.44929050  .00003294  00000-0  88007-3 0  9991
2 60771  88.9681 258.5335 0051039  34.2825 326.1657 14.47391041109099

AllMySatでCZ-6A DEBをリアルタイム追跡

Download on the App Store